TimePDT,TemperatureF,Dew PointF,Humidity,Sea Level PressureIn,VisibilityMPH,Wind Direction,Wind SpeedMPH,Gust SpeedMPH,PrecipitationIn,Events,Conditions,WindDirDegrees,DateUTC
12:53 AM,50.0,46.9,89,30.14,10.0,NNW,3.5,-,N/A,,Clear,340,2013-07-27 07:53:00
1:53 AM,48.9,46.9,93,30.14,10.0,Calm,Calm,-,N/A,,Clear,0,2013-07-27 08:53:00
2:53 AM,50.0,46.9,89,30.14,10.0,Calm,Calm,-,N/A,,Clear,0,2013-07-27 09:53:00
3:53 AM,50.0,48.9,96,30.15,7.0,East,4.6,-,N/A,,Clear,100,2013-07-27 10:53:00
4:44 AM,48.2,46.4,93,30.15,4.0,Calm,Calm,-,N/A,,Partly Cloudy,0,2013-07-27 11:44:00
4:53 AM,46.9,46.0,97,30.16,5.0,Calm,Calm,-,N/A,,Clear,0,2013-07-27 11:53:00
5:44 AM,46.4,44.6,93,30.16,2.5,Calm,Calm,-,N/A,,Clear,0,2013-07-27 12:44:00
5:53 AM,46.0,45.0,96,30.16,3.0,Calm,Calm,-,N/A,,Clear,0,2013-07-27 12:53:00
6:53 AM,51.1,50.0,96,30.17,5.0,Calm,Calm,-,N/A,,Clear,0,2013-07-27 13:53:00
7:53 AM,54.0,51.1,90,30.17,8.0,ESE,3.5,-,N/A,,Clear,110,2013-07-27 14:53:00
8:53 AM,57.9,51.1,78,30.17,9.0,ESE,3.5,-,N/A,,Clear,110,2013-07-27 15:53:00
9:53 AM,60.1,51.1,72,30.17,10.0,East,4.6,-,N/A,,Clear,100,2013-07-27 16:53:00
10:53 AM,64.0,51.1,63,30.16,10.0,ESE,5.8,-,N/A,,Clear,120,2013-07-27 17:53:00
11:53 AM,68.0,52.0,56,30.15,10.0,SE,4.6,-,N/A,,Clear,130,2013-07-27 18:53:00
12:53 PM,69.1,51.1,53,30.14,10.0,SE,6.9,-,N/A,,Clear,130,2013-07-27 19:53:00
1:53 PM,70.0,51.1,51,30.12,10.0,SE,5.8,-,N/A,,Clear,130,2013-07-27 20:53:00
2:53 PM,73.0,52.0,48,30.11,10.0,ESE,5.8,-,N/A,,Clear,110,2013-07-27 21:53:00
3:53 PM,70.0,52.0,53,30.09,10.0,ESE,5.8,-,N/A,,Clear,120,2013-07-27 22:53:00
4:53 PM,72.0,51.1,48,30.06,10.0,ESE,3.5,-,N/A,,Clear,110,2013-07-27 23:53:00
5:53 PM,71.1,51.1,49,30.05,10.0,SW,5.8,-,N/A,,Clear,230,2013-07-28 00:53:00
6:53 PM,66.0,51.1,59,30.04,10.0,SW,8.1,-,N/A,,Clear,220,2013-07-28 01:53:00
7:53 PM,61.0,48.9,64,30.03,10.0,SW,6.9,-,N/A,,Clear,220,2013-07-28 02:53:00
8:53 PM,55.9,48.9,77,30.02,10.0,Calm,Calm,-,N/A,,Clear,0,2013-07-28 03:53:00
9:53 PM,52.0,48.0,86,30.02,10.0,Calm,Calm,-,N/A,,Clear,0,2013-07-28 04:53:00
10:53 PM,51.1,48.0,89,30.02,10.0,East,3.5,-,N/A,,Clear,100,2013-07-28 05:53:00
11:53 PM,48.9,48.0,97,30.01,10.0,Calm,Calm,-,N/A,,Clear,0,2013-07-28 06:53:00